Hourly Weather Roundup
Issued by NWS Central Illinois

Home | Current Version | Previous Version | Text Only | Print | Product List | Glossary On
Versions: 1 2 3 4 5 6 7 8 9 10 11 12 13 14 15 16 17 18 19 20 21 22 23 24 25 26 27 28 29 30 31 32 33 34 35 36 37 38 39 40 41 42 43 44 45 46 47 48 49 50
000
NZUS43 KILX 201310
HWRILX

Area Weather Roundup
National Weather Service Lincoln IL
800 AM CDT WED SEP 20 2017

NOTE:  "FAIR" indicates few or no clouds below 12,000 feet, with
       no sigificant weather and/or obstructions to visibility.


CITY           SKY/WX    TMP DP  RH WIND       PRES   REMARKS
Bloomington    SUNNY     69  66  90 S9        29.94R
Champaign      SUNNY     70  67  90 S7        29.95S HAZE
Danville       FOG       66  66 100 SE5       29.94S VSB 3/4
Decatur        SUNNY     71  69  93 S8        29.94R
Effingham      SUNNY     70  70 100 SE6       29.98R FOG
Flora          SUNNY     71  70  96 S6        29.97S FOG
Galesburg      SUNNY     70  66  89 SE5       29.87R
Jacksonville   MOSUNNY   73  67  84 S8        29.89S
Lacon            N/A     68  66  93 S6        29.88S FOG
Lawrenceville  SUNNY     71  70  96 S3        29.99R FOG
Litchfield     SUNNY     70  68  93 SE7       29.93S
$$


CITY           SKY/WX    TMP DP  RH WIND       PRES   REMARKS
Lincoln        SUNNY     71  69  94 S6        29.91S
Macomb         SUNNY     69  67  95 S7        29.88S
Mattoon        SUNNY     70  70 100 S8        29.96R FOG
Mt Carmel AP   SUNNY     70  69  96 CALM      29.98R FOG
Olney-Noble AP SUNNY     71  69  92 S3        29.98R FOG
Paris AP       FOG       70  70 100 SE5       29.98S VSB 3/4
Peoria         SUNNY     70  68  93 S3        29.89R
Pontiac        SUNNY     66  66  98 CALM      29.93S FOG
Rantoul        SUNNY     67  67  99 S5        29.95R FOG
Robinson       SUNNY     68  68 100 CALM      29.99R FOG
Springfield    SUNNY     75  69  81 S8        29.91R
Taylorville    SUNNY     71  68  90 S7        29.93S
$$

...REGIONAL REPORTS...


CITY           SKY/WX    TMP DP  RH WIND       PRES   REMARKS
Chicago O`Hare MOSUNNY   69  65  86 SE9       29.91F
Kankakee       SUNNY     65  65  97 SE6       29.95S FOG
Moline         SUNNY     71  65  81 S8        29.83R
Mount Sterling SUNNY     69  67  94 SE5       29.87R
Mount Vernon     N/A     71  69  93 CALM      29.97R
Pittsfield     SUNNY     71  69  93 SE3       29.89R
Quincy         SUNNY     73  68  84 S9        29.86R
Rockford       PTSUNNY   68  64  87 S8        29.88S
$$


CITY           SKY/WX    TMP DP  RH WIND       PRES   REMARKS
Burlington     SUNNY     73  69  87 S12       29.83R
Cedar Rapids   SUNNY     70  66  87 S13       29.78R
Des Moines     MOSUNNY   74  68  81 S8        29.72R
Kirksville     SUNNY     74  68  81 S8        29.84R
Ottumwa        SUNNY     73  67  81 S9        29.78R
St Louis       MOSUNNY   75  69  81 S8        29.91R
$$


CITY           SKY/WX    TMP DP  RH WIND       PRES   REMARKS
Terre Haute    SUNNY     69  68  96 SE3       29.98R FOG
Evansville     SUNNY     70  68  93 SE3       30.00R
Indianapolis   FOG       67  66  97 SE7       30.00R VSB 1/8
Lafayette      SUNNY     67  67 100 CALM      29.97R FOG
Madison        PTSUNNY   68  64  87 S15       29.84S
Milwaukee      CLOUDY    68  68 100 SE10      29.92R FOG
$$






USA.gov is the U.S. government's official web portal to all federal, state and local government web resources and services.